Regional Weather Roundup
Issued by NWS

Home | Current Version | Previous Version | Text Only | Print | Product List | Glossary On
Versions: 1 2 3 4 5 6 7 8 9 10 11 12 13 14 15 16 17 18 19 20 21 22 23 24 25 26 27 28 29 30 31 32 33 34 35 36 37 38 39 40 41 42 43 44 45 46 47 48 49 50
000
ASUS44 KFWD 280301
RWRTX
NORTH TEXAS HOURLY WEATHER ROUNDUP
NATIONAL WEATHER SERVICE FORT WORTH TX
1000 PM CDT TUE SEP 27 2016

NOTE: "FAIR" INDICATES FEW OR NO CLOUDS BELOW 12,000 FEET WITH NO
SIGNIFICANT WEATHER AND/OR OBSTRUCTIONS TO VISIBILITY.

TXZ118-119-280400-
DALLAS/FORT WORTH METROPLEX

CITY           SKY/WX    TMP DP  RH WIND       PRES   REMARKS
DFW AIRPORT    PTCLDY    67  48  50 SW7       30.03R
DALLAS LOVE    PTCLDY    65  55  70 CALM      30.04R
FTW MEACHAM    CLEAR     66  53  63 W3        30.05R
DAL-EXECUTIVE  CLEAR     59  53  80 W5        30.04R
FTW-ALLIANCE   MOCLDY    58  52  80 SW8       30.04R
FTW-NAS-JRB    CLEAR     66  49  54 CALM      30.05R
ARLINGTON      CLEAR     58  52  80 CALM      30.05R
GRAND PRAIRIE  CLEAR     67  49  51 CALM      30.06R
ADDISON        PTCLDY    64  48  55 CALM      30.05R
MESQUITE       CLEAR     64  51  63 CALM      30.04R
LANCASTER      CLEAR     61  56  83 CALM      30.05R
$$

TXZ091>094-102>105-117-120-121-131>134-280400-
NORTH CENTRAL TEXAS

CITY           SKY/WX    TMP DP  RH WIND       PRES   REMARKS
SHRMAN/DENISON NOT AVBL
GAINESVILLE      N/A     62  52  71 W3        30.05S
BRIDGEPORT     CLEAR     60  55  82 S5        30.07S
DECATUR        CLEAR     66  45  47 S5        30.06R
DENTON         CLEAR     60  50  69 SW3       30.03S
MCKINNEY       CLEAR     62  54  74 SW3       30.04R
GREENVILLE     CLEAR     57  54  88 CALM      30.04R
ROCKWALL       CLEAR     64  53  65 CALM      30.04R
TERRELL        PTCLDY    63  57  81 CALM      30.04R
WAXAHACHIE     CLEAR     60  60  99 CALM      30.07R
CLEBURNE       CLOUDY    64  52  63 CALM      30.07F
$$

TXZ083>090-098>101-113>116-127>130-139>142-154-155-280400-
WESTERN NORTH TEXAS

CITY           SKY/WX    TMP DP  RH WIND       PRES   REMARKS
WICHITA FALLS  CLOUDY    63  50  62 SW8       30.04R
WF-KICKAPOO    CLOUDY    69  46  43 SW5       30.06R
VERNON         PTCLDY    64  50  59 SW7       30.06F
ABILENE        PTCLDY    60  53  77 S6        30.10R
ABILENE-DYESS  CLEAR     59  52  77 S1        30.09R
CISCO          PTCLDY    63  50  63 S5        30.10R
MINERAL WELLS  CLEAR     59  50  72 SW5       30.05S
STEPHENVILLE   PTCLDY    63  52  67 CALM      30.10S
COMANCHE       PTCLDY    65  49  55 CALM      30.09S
COLEMAN        CLEAR     63  58  84 CALM      30.11R
$$

TXZ143>147-156>162-174-175-280400-
CENTRAL TEXAS

CITY           SKY/WX    TMP DP  RH WIND       PRES   REMARKS
WACO           PTCLDY    67  58  72 N5        30.05R
WACO-TSTC      CLEAR     66  54  63 CALM      30.05
WACO-MCGREGOR  CLEAR     68  57  68 N3        30.05S
HILLSBORO      CLEAR     62  53  70 CALM      30.06R
MEXIA          CLEAR     69  55  61 NW3       30.04S
HEARNE         PTCLDY    67  64  90 CALM      30.05R
CAMERON        PTCLDY    70  61  72 CALM      30.05R
TEMPLE         CLEAR     66  60  81 NE3       30.06R
KILLEEN        CLEAR     68  58  68 CALM      30.06R
KILLEEN-SKYLRK CLEAR     68  59  73 N3        30.06R
FORT HOOD      CLEAR     67  58  73 N7        30.04R
HAMILTON       CLEAR     67  54  61 N3        30.08S
$$

TXZ095>097-106>112-122>126-135>138-148>153-164>167-280400-
EAST TEXAS

CITY           SKY/WX    TMP DP  RH WIND       PRES   REMARKS
PARIS          CLEAR     63  50  63 W6        30.02S
SULPHUR SPRNGS CLEAR     64  54  68 SW5       30.05R
GILMER         PTCLDY    65  60  86 CALM      30.02S
MINEOLA        PTCLDY    64  61  88 CALM      30.03S
TYLER          PTCLDY    68  61  78 W5        30.03R
LONGVIEW       MOCLDY    67  62  84 CALM      30.02R
MARSHALL       MOCLDY    65  62  89 CALM      30.04S
ATHENS         PTCLDY    63  61  94 CALM      30.03R
PALESTINE      CLEAR     67  65  94 CALM      30.04S
JACKSONVILLE   PTCLDY    70  62  75 CALM      30.05S
HENDERSON      CLOUDY    66  65  97 CALM      30.04S
NACOGDOCHES    CLOUDY    66  63  88 CALM      30.01S
LUFKIN         PTCLDY    69  61  75 NE3       30.02R
$$

SUPPLEMENTAL OBSERVATIONS (CENTRAL)

CITY           SKY/WX    TMP DP  RH WIND       PRES   REMARKS
$$

SUPPLEMENTAL OBSERVATIONS (WEST)

CITY           SKY/WX    TMP DP  RH WIND       PRES   REMARKS
$$

SUPPLEMENTAL OBSERVATIONS (EAST)

CITY           SKY/WX    TMP DP  RH WIND       PRES   REMARKS
$$

SUPPLEMENTAL OBSERVATIONS ARE A COLLECTION OF AUTOMATED INSTRUMENTS
THAT ARE MAINTAINED BY A VARIETY OF FEDERAL AND STATE AGENCIES.
CERTAIN ELEMENTS...SUCH AS HUMIDITY VALUES AND SUSTAINED WIND
SPEEDS...MAY BE APPROXIMATED.





USA.gov is the U.S. government's official web portal to all federal, state and local government web resources and services.